sat.trackr.live / text

‹ back to catalog

STARLINK-32338

NORAD 61519 · 2024-183L

PAYLOAD ACTIVE UNKNOWN

§ Identity

Operator
Country
US
Launch date
2024-10-15
Launch site
AFETR
Launch vehicle
Mass (kg)
RCS (m²)

Purposes: comms

External: N2YO · Heavens-Above · Gunter

§ Orbital elements

Epoch: 2026-09-21T09:03:56.912256Z

Period
93.85 min
Inclination
53.1595°
Eccentricity
0.0001545
Mean motion
15.34390278 rev/d
Perigee alt
461.7 km
Apogee alt
463.8 km
Semi-major
6,840.9 km
B*
4.8078e-5
RAAN
303.4971°
Arg perigee
82.7483°
Mean anomaly
277.3696°
Rev number
10,975

§ Raw data

STARLINK-323381 61519U 24183L   26264.37774204  .00001248  00000+0  48078-4 0  99992 61519  53.1595 303.4971 0001545  82.7483 277.3696 15.34390278109750

JSON: /api/v1/satellites/61519 · /tle

For live sub-satellite position, see the globe view (requires WebGL).

§ Visibility from observer

Set your observer location to see the next 7 days of passes ≥ 10°. The values pass through the URL so the page stays shareable.

No JS? Fill the form by hand. The geolocation button needs JavaScript.